Wilmington, NC

8:25 AM EST on February 22, 2018 (GMT -0500)
Wilmington International

Weather History for KILM - March, 2012

Change the Weather History Date:

Monday, March 5, 2012

  Actual Average Record
Temperature  
Mean Temperature 50 °F 52 °F  
Max Temperature 64 °F 64 °F 84 °F (1955)
Min Temperature 36 °F 41 °F 20 °F (1873)
Degree Days  
Heating Degree Days 15 13  
Month to date heating degree days 33 67  
Since 1 July heating degree days 1603 1996  
Cooling Degree Days 0 0  
Month to date cooling degree days 7 0  
Year to date cooling degree days 13 5  
Moisture  
Dew Point 28 °F    
Average Humidity 53    
Maximum Humidity 85    
Minimum Humidity 20    
Precipitation  
Precipitation 0.00 in 0.13 in 1.37 in (1920)
Month to date precipitation 2.05 0.68  
Year to date precipitation 5.98 8.06  
Snow  
Snow 0.00 in 0.00 in - ()
Month to date snowfall 0.0 0.0  
Since 1 July snowfall T 1.5  
Snow Depth 0.00 in    
Sea Level Pressure  
Sea Level Pressure 30.18 in    
Wind  
Wind Speed 13 mph (West)    
Max Wind Speed 33 mph    
Max Gust Speed 43 mph    
Visibility 10 miles    
Events      
T = Trace of Precipitation, MM = Missing Value Source: NWS Daily Summary

Daily Weather History Graph

Daily Weather History Graph

Search for Another Location

Airport or City:

Trip Planner

Search our weather history database for the weather conditions in past years. The results will help you decide how hot, cold, wet, or windy it might be!

Date:

Astronomy

Mar. 05, 2012 Rise Set
Actual Time 6:34 AM EST 6:11 PM EST
Civil Twilight 6:09 AM EST 6:36 PM EST
Nautical Twilight 5:40 AM EST 7:05 PM EST
Astronomical Twilight 5:11 AM EST 7:34 PM EST
Moon 3:33 PM EST (3/5) 4:26 AM EST (3/5)
Length of Visible Light 12h 27m
Length of Day
11h 36m
Waxing Gibbous, 91% of the Moon is Illuminated
Mar 5
Waxing Gibbous
Mar 8
Full
Mar 14
Last Quarter
Mar 22
New
Mar 30
First Quarter

Hourly Weather History & Observations

Time (EST) Temp. Windchill Dew Point Humidity Pressure Visibility Wind Dir Wind Speed Gust Speed Precip Events Conditions
12:53 AM 37.9 °F 35.5 °F 33.1 °F 83% 30.11 in 10.0 mi SW 3.5 mph - N/A   Clear
1:53 AM 37.9 °F - 30.9 °F 76% 30.12 in 10.0 mi Calm Calm - N/A   Clear
2:53 AM 37.0 °F 34.5 °F 30.0 °F 76% 30.11 in 10.0 mi SSW 3.5 mph - N/A   Clear
3:53 AM 37.0 °F 34.5 °F 30.0 °F 76% 30.10 in 10.0 mi SSE 3.5 mph - N/A   Clear
4:53 AM 37.9 °F 34.4 °F 28.0 °F 68% 30.10 in 10.0 mi South 4.6 mph - N/A   Clear
5:53 AM 39.9 °F 35.8 °F 30.9 °F 70% 30.09 in 10.0 mi South 5.8 mph - N/A   Clear
6:53 AM 42.1 °F 36.6 °F 34.0 °F 73% 30.07 in 10.0 mi South 9.2 mph - N/A   Clear
7:53 AM 51.1 °F - 35.1 °F 54% 30.06 in 10.0 mi South 13.8 mph - N/A   Scattered Clouds
8:53 AM 57.0 °F - 36.0 °F 45% 30.04 in 10.0 mi SSW 19.6 mph 33.4 mph N/A   Overcast
9:53 AM 60.1 °F - 35.1 °F 39% 30.01 in 10.0 mi SW 28.8 mph 39.1 mph N/A   Mostly Cloudy
10:53 AM 61.0 °F - 35.1 °F 38% 30.01 in 10.0 mi WSW 23.0 mph 35.7 mph N/A   Overcast
11:53 AM 64.0 °F - 33.1 °F 31% 30.02 in 10.0 mi WSW 28.8 mph 39.1 mph N/A   Scattered Clouds
12:53 PM 61.0 °F - 32.0 °F 34% 30.04 in 10.0 mi WNW 24.2 mph 33.4 mph N/A   Mostly Cloudy
1:53 PM 59.0 °F - 28.9 °F 32% 30.09 in 10.0 mi WNW 23.0 mph 36.8 mph N/A   Mostly Cloudy
2:53 PM 60.1 °F - 19.9 °F 21% 30.12 in 10.0 mi WNW 29.9 mph 39.1 mph N/A   Clear
3:53 PM 59.0 °F - 21.0 °F 23% 30.16 in 10.0 mi WNW 24.2 mph 34.5 mph N/A   Clear
4:53 PM 57.0 °F - 23.0 °F 27% 30.20 in 10.0 mi NW 16.1 mph 23.0 mph N/A   Partly Cloudy
5:53 PM 54.0 °F - 24.1 °F 31% 30.26 in 10.0 mi NW 13.8 mph 26.5 mph N/A   Clear
6:53 PM 50.0 °F - 23.0 °F 35% 30.32 in 10.0 mi NW 11.5 mph - N/A   Clear
7:53 PM 46.9 °F - 23.0 °F 39% 30.37 in 10.0 mi NNW 8.1 mph - N/A   Clear
8:53 PM 45.0 °F 41.8 °F 24.1 °F 44% 30.42 in 10.0 mi NNW 5.8 mph - N/A   Clear
9:53 PM 43.0 °F 40.3 °F 24.1 °F 47% 30.45 in 10.0 mi NNW 4.6 mph - N/A   Clear
10:53 PM 42.1 °F 39.2 °F 21.0 °F 43% 30.48 in 10.0 mi North 4.6 mph - N/A   Clear
11:53 PM 39.9 °F 36.7 °F 21.9 °F 49% 30.51 in 10.0 mi NNW 4.6 mph - N/A   Clear